Regional Weather Roundup
Issued by NWS

Home | Current Version | Previous Version | Text Only | Print | Product List | Glossary On
Versions: 1 2 3 4 5 6 7 8 9 10 11 12 13 14 15 16 17 18 19 20 21 22 23 24 25 26 27 28 29 30 31 32 33 34 35 36 37 38 39 40 41 42 43 44 45 46 47 48 49 50
000
ASUS44 KJAN 281503
RWRMS

MISSISSIPPI HOURLY WEATHER ROUNDUP
NATIONAL WEATHER SERVICE JACKSON MS
900 AM CST FRI NOV 28 2014

NOTE: "FAIR: INDICATES FEW OR NO CLOUDS BELOW 12,000 FEET WITH NO
SIGNIFICANT WEATHER AND/OR OBSTRUCTIONS TO VISIBILITY.

MSZ001>002-007>008-010>013-018>021-025>028-034>036-281600-
NORTHWEST MISSISSIPPI

CITY           SKY/WX    TMP DP  RH WIND       PRES   REMARKS
CLARKSDALE     FAIR      37  32  81 SE8       30.43S WCI  31
CLEVELAND      FAIR      39  33  79 SE10      30.42R WCI  32
GREENWOOD      SUNNY     41  30  65 SE7       30.43F
GREENVILLE     SUNNY     39  32  76 SE12      30.41S WCI  32
GRENADA        FAIR      37  30  75 SE5       30.45R WCI  34
OLIVE BRANCH   SUNNY     34  30  86 S8        30.41S WCI  27
OXFORD         FAIR      36  23  60 SE9G17    30.44S WCI  29
TUNICA         SUNNY     36  32  87 SE10      30.43R WCI  28
$$

MSZ003>006-009-014>017-022>024-029>033-037>039-281600-
NORTHEAST MISSISSIPPI

CITY           SKY/WX    TMP DP  RH WIND       PRES   REMARKS
COLUMBUS AFB   SUNNY     36  28  72 SE6       30.47R WCI  31
CORINTH        FAIR      34  27  75 SE9G15    30.44S WCI  26
GOLDN TRIANGLE SUNNY     36  27  69 SE9       30.46R WCI  29
STARKVILLE     FAIR      36  30  80 SE3       30.46R
TUPELO         SUNNY     36  25  64 S9        30.45S WCI  29
$$

MSZ040-058-281600-
CENTRAL MISSISSIPPI

CITY           SKY/WX    TMP DP  RH WIND       PRES   REMARKS
JACKSON INTL   MOSUNNY   41  31  67 S6        30.44R
JACKSON HAWKNS SUNNY     40  31  70 SE8       30.44R WCI  34
MERIDIAN KEY   SUNNY     40  28  62 NE6       30.46R
MERIDIAN NAS   SUNNY     37  28  70 E6        30.47R WCI  32
RAYMOND        FAIR      39  36  87 SE12      30.44S WCI  32
VICKSBURG      SUNNY     43  33  68 SE10      30.43S
$$

MSZ059>079-281600-
SOUTH MISSISSIPPI

CITY           SKY/WX    TMP DP  RH WIND       PRES   REMARKS
BROOKHAVEN     FAIR      41  32  70 SE8       30.45R
HATTIESBURG    SUNNY     40  31  70 E8        30.47S WCI  34
MCCOMB         SUNNY     42  30  62 E8        30.44R
NATCHEZ        SUNNY     43  32  65 SE9       30.43S
PINE BELT      SUNNY     39  28  65 E3        30.46S
$$

MSZ080>082-281600-
COASTAL MISSISSIPPI

CITY           SKY/WX    TMP DP  RH WIND       PRES   REMARKS
BAY ST LOUIS   SUNNY     45  30  57 VRB6      30.47R
BILOXI         SUNNY     45  31  57 NE9       30.46R
PASCAGOULA     SUNNY     44  32  62 NE7       30.46R
GULFPORT       SUNNY     44  32  62 NE6       30.46R
$$


USA.gov is the U.S. government's official web portal to all federal, state and local government web resources and services.